Flag for U.S.A. Weather past 2 weeks in St. Louis, Missouri, U.S.A.

Now
46 °F

Passing clouds.


Feels Like: 46 °F
Forecast: 43 / 64 °F
Wind: No wind

Location: Lambert-St. Louis International Airport

Current Time: Oct 23, 2014 at 5:28:07 AM

Latest Report: Oct 23, 2014 at 4:51 AM


Visibility: 10 mi

Pressure: 30.20 "Hg

Humidity: 79%

Dew point: 40 °F

Location of St. LouisLocation

Historic Weather in St. Louis — Graph

°F

St. Louis temperature yesterday

Maximum temperature yesterday: 63 °F (at 2:51 PM)
Minimum temperature yesterday: 43 °F (at 5:51 AM)
Average temperature yesterday: 52 °F

Past Weeks' High & Low Weather Summary

 TemperatureHumidityPressure
High77 °F (Oct 8, 2:51 PM)97% (Oct 13, 5:51 AM)30.33 "Hg (Oct 13, 5:51 AM)
Low43 °F (Oct 19, 3:51 AM)32% (Oct 8, 1:51 PM)29.42 "Hg (Oct 14, 5:51 AM)
Average58 °F73%29.97 "Hg
* Reported Oct 8 3:51 AM — Oct 23 3:51 AM, St. Louis, Weather by CustomWeather, © 2014

Note: Actual official high and low records may vary slightly from our data, if they occured in-between our weather recording intervals... More about our weather records

Advertising

St. Louis weather history for previous 24 hours

 ConditionsComfort  
Time TempWeatherWind HumidityBarometerVisibility
3:51 AM
Oct 23
43 °FPassing clouds.6 mph82%30.20 "Hg10 mi
2:51 AM46 °FPassing clouds.No wind77%30.22 "Hg10 mi
1:51 AM46 °FPassing clouds.5 mph77%30.22 "Hg10 mi
12:51 AM47 °FPassing clouds.5 mph77%30.22 "Hg10 mi
11:51 PM
Oct 22
48 °FPassing clouds.9 mph77%30.23 "Hg10 mi
10:51 PM49 °FPassing clouds.3 mph71%30.25 "Hg10 mi
9:51 PM50 °FPassing clouds.6 mph71%30.24 "Hg10 mi
8:51 PM52 °FPassing clouds.6 mph66%30.23 "Hg10 mi
6:51 PM58 °FPassing clouds.8 mph56%30.21 "Hg10 mi
4:51 PM63 °FSunny.6 mph45%30.23 "Hg10 mi
3:51 PM63 °FSunny.7 mph48%30.24 "Hg10 mi
2:51 PM63 °FSunny.6 mph50%30.25 "Hg10 mi
1:51 PM61 °FSunny.5 mph52%30.27 "Hg10 mi
12:51 PM59 °FSunny.5 mph56%30.30 "Hg10 mi
11:51 AM57 °FPassing clouds.6 mph58%30.33 "Hg10 mi
10:51 AM54 °FSunny.7 mph67%30.33 "Hg10 mi
9:51 AM51 °FSunny.9 mph71%30.33 "Hg10 mi
8:51 AM48 °FSunny.8 mph77%30.32 "Hg10 mi
7:51 AM45 °FClear.6 mph80%30.30 "Hg10 mi
6:51 AM43 °FClear.No wind82%30.29 "Hg10 mi
5:51 AM43 °FClear.5 mph82%30.27 "Hg10 mi
Weather by CustomWeather, © 2014

See weather overviewHow to use our weather pages